Location: Bamobli
(6.6379°N, 10.9396°W)
Time: 12:29:13
(UTC+00:00)

NOSS 3-1 (A) - Pass Details

Date: 07 June 2020
Orbit: 755 x 1458 km, 63.4° (Epoch: 16 June)

Event Time Altitude Azimuth Distance (km) Brightness Sun altitude
Rises 05:05:49 0° 325° (NW) 4,401 6.8 -19.3°
Reaches altitude 10° 05:08:45 10° 320° (NW) 3,486 6.2 -18.7°
Maximum altitude 05:17:05 49° 248° (WSW) 1,815 4.5 -16.8°
Drops below altitude 10° 05:25:33 10° 176° (S) 3,531 6.2 -14.9°
Sets 05:28:35 0° 171° (S) 4,462 6.8 -14.3°
